This is the latest recevied weather packets stored in our database for station/object K9RJT. If no packets are shown the sender has not sent any weather packets the latest 1 day(s).
| Time | Temp. | Humidity | Pressure | Rain* | Wind** | Luminosity | Snow |
|---|---|---|---|---|---|---|---|
| 1778050729 | 12.78° C | 57% | 1011.4 hPa | 0 mm | - | 0 W/m² | - |
| 1778050427 | 12.78° C | 59% | 1011.4 hPa | 0 mm | - | 0 W/m² | - |
| 1778049818 | 12.78° C | 61% | 1011.5 hPa | 0 mm | - | 0 W/m² | - |
| 1778049516 | 12.78° C | 60% | 1011.6 hPa | 0 mm | - | 0 W/m² | - |
| 1778048912 | 12.78° C | 56% | 1011.5 hPa | 0 mm | - | 0 W/m² | - |
| 1778048609 | 12.78° C | 58% | 1011.3 hPa | 0 mm | - | 0 W/m² | - |
| 1778048305 | 13.33° C | 57% | 1011.1 hPa | 0 mm | - | 0 W/m² | - |
| 1778048002 | 13.33° C | 57% | 1011.2 hPa | 0 mm | - | 0 W/m² | - |
| 1778047700 | 13.33° C | 57% | 1011.1 hPa | 0 mm | - | 0 W/m² | - |
| 1778047398 | 13.89° C | 57% | 1011.1 hPa | 0 mm | - | 0 W/m² | - |
| 1778047094 | 13.89° C | 56% | 1010.9 hPa | 0 mm | - | 0 W/m² | - |
| 1778046185 | 14.44° C | 54% | 1010.6 hPa | 0 mm | - | 0 W/m² | - |
| 1778045881 | 15.56° C | 52% | 1010.6 hPa | 0 mm | - | 0 W/m² | - |
| 1778044673 | 15° C | 52% | 1010.2 hPa | 0 mm | - | 0 W/m² | - |
| 1778044067 | 15.56° C | 50% | 1010.3 hPa | 0 mm | - | 0 W/m² | - |
| 1778043461 | 15.56° C | 51% | 1010.2 hPa | 0 mm | - | 0 W/m² | - |
| 1778042855 | 15.56° C | 50% | 1009.9 hPa | 0 mm | - | 0 W/m² | - |
| 1778042552 | 16.11° C | 49% | 1009.9 hPa | 0 mm | - | 0 W/m² | - |
| 1778042250 | 16.67° C | 48% | 1009.8 hPa | 0 mm | - | 0 W/m² | - |
| 1778041947 | 16.67° C | 48% | 1009.9 hPa | 0 mm | - | 0 W/m² | - |
| 1778041646 | 17.22° C | 49% | 1009.9 hPa | 0 mm | - | 0 W/m² | - |
| 1778041344 | 17.78° C | 48% | 1009.8 hPa | 0 mm | - | 0 W/m² | - |
| 1778041042 | 17.78° C | 47% | 1009.7 hPa | 0 mm | - | 0 W/m² | - |
| 1778040739 | 18.33° C | 45% | 1009.8 hPa | 0 mm | - | 0 W/m² | - |
| 1778040436 | 18.89° C | 43% | 1009.7 hPa | 0 mm | - | 0 W/m² | - |
* Rain latest hour (hover to see other rain measurements)
** Current wind speed in m/s (hover to see current wind gust speed)